| time (UTC) | temp F | wind direction | speed MPH | gust MPH | rain 1hr in | rain 24hr in | rain mn in | humidity % | barometer mb |
| 20260904221916 | 85 | 0.0 | 0.0 | 0.00 | 0.25 | 0.25 | 80 | 1014.0 | |
| 20260904220916 | 86 | 0.0 | 0.0 | 0.00 | 0.25 | 0.25 | 79 | 1014.1 | |
| 20260904215918 | 86 | 0.0 | 0.0 | 0.00 | 0.25 | 0.25 | 80 | 1014.2 | |
| 20260904214916 | 86 | 0.0 | 1.0 | 0.00 | 0.25 | 0.25 | 78 | 1014.3 | |
| 20260904213936 | 87 | 0.0 | 1.0 | 0.00 | 0.25 | 0.25 | 78 | 1014.3 | |
| 20260904212917 | 87 | 135 | 1.0 | 1.0 | 0.00 | 0.26 | 0.25 | 76 | 1014.2 |
| 20260904211917 | 87 | 135 | 1.0 | 1.0 | 0.00 | 0.28 | 0.25 | 75 | 1014.1 |
| 20260904210917 | 88 | 0.0 | 1.0 | 0.00 | 0.28 | 0.25 | 74 | 1014.1 | |
| 20260904205916 | 90 | 158 | 1.0 | 1.0 | 0.00 | 0.28 | 0.25 | 75 | 1014.3 |
| 20260904204916 | 88 | 135 | 1.0 | 2.0 | 0.00 | 0.28 | 0.25 | 75 | 1014.3 |
| 20260904203918 | 88 | 0.0 | 0.0 | 0.00 | 0.28 | 0.25 | 74 | 1014.4 | |
| 20260904202917 | 90 | 135 | 1.0 | 1.0 | 0.00 | 0.28 | 0.25 | 71 | 1014.4 |
| 20260904201916 | 93 | 135 | 2.0 | 3.0 | 0.00 | 0.28 | 0.25 | 68 | 1014.5 |
| 20260904200917 | 92 | 0.0 | 0.0 | 0.00 | 0.28 | 0.25 | 66 | 1014.5 | |
| 20260904195918 | 91 | 135 | 3.0 | 5.0 | 0.00 | 0.28 | 0.25 | 67 | 1014.6 |
| 20260904194916 | 90 | 68 | 1.0 | 1.0 | 0.00 | 0.28 | 0.25 | 70 | 1014.8 |
| 20260904193916 | 89 | 68 | 1.0 | 1.0 | 0.00 | 0.28 | 0.25 | 75 | 1015.0 |
| 20260904192916 | 89 | 0.0 | 1.0 | 0.00 | 0.28 | 0.25 | 78 | 1015.1 | |
| 20260904191937 | 87 | 68 | 1.0 | 1.0 | 0.00 | 0.28 | 0.25 | 78 | 1015.1 |
| 20260904190916 | 86 | 0.0 | 1.0 | 0.01 | 0.28 | 0.25 | 81 | 1015.0 | |
| 20260904190017 | 85 | 68 | 1.0 | 1.0 | 0.01 | 0.28 | 0.25 | 81 | 1015.2 |
| 20260904184916 | 86 | 0.0 | 0.0 | 0.01 | 0.28 | 0.25 | 79 | 1015.3 | |
| 20260904183917 | 85 | 0.0 | 0.0 | 0.02 | 0.28 | 0.25 | 79 | 1015.6 | |
| 20260904182916 | 84 | 0.0 | 1.0 | 0.03 | 0.28 | 0.25 | 87 | 1015.5 | |
| 20260904181916 | 82 | 0.0 | 0.0 | 0.07 | 0.28 | 0.25 | 90 | 1015.5 | |
| 20260904180916 | 81 | 0.0 | 0.0 | 0.16 | 0.27 | 0.24 | 90 | 1015.6 | |
| 20260904175957 | 81 | 0.0 | 1.0 | 0.17 | 0.27 | 0.24 | 91 | 1016.0 | |
| 20260904174937 | 81 | 0.0 | 0.0 | 0.23 | 0.27 | 0.24 | 92 | 1016.2 | |
| 20260904173937 | 80 | 0.0 | 1.0 | 0.23 | 0.26 | 0.23 | 91 | 1016.3 | |
| 20260904172916 | 81 | 45 | 1.0 | 1.0 | 0.22 | 0.25 | 0.22 | 91 | 1016.4 |
| 20260904171916 | 81 | 0.0 | 1.0 | 0.18 | 0.21 | 0.18 | 88 | 1016.4 | |
| 20260904170917 | 83 | 135 | 2.0 | 4.0 | 0.08 | 0.11 | 0.08 | 86 | 1016.2 |
| 20260904165916 | 85 | 158 | 2.0 | 4.0 | 0.07 | 0.10 | 0.07 | 83 | 1016.2 |
| 20260904164917 | 88 | 0.0 | 0.0 | 0.01 | 0.04 | 0.01 | 75 | 1016.1 | |
| 20260904163956 | 90 | 0.0 | 0.0 | 0.00 | 0.03 | 0.00 | 69 | 1016.2 | |
| 20260904162916 | 90 | 0.0 | 0.0 | 0.00 | 0.03 | 0.00 | 70 | 1016.2 | |
| 20260904161916 | 90 | 203 | 1.0 | 2.0 | 0.00 | 0.03 | 0.00 | 69 | 1016.4 |
| 20260904160916 | 90 | 315 | 3.0 | 7.0 | 0.00 | 0.03 | 0.00 | 65 | 1016.4 |
| 20260904155917 | 90 | 0.0 | 1.0 | 0.00 | 0.03 | 0.00 | 70 | 1016.4 | |
| 20260904154916 | 89 | 23 | 1.0 | 2.0 | 0.00 | 0.03 | 0.00 | 70 | 1016.4 |
| 20260904153917 | 88 | 0.0 | 1.0 | 0.00 | 0.03 | 0.00 | 72 | 1016.5 | |
| 20260904152916 | 88 | 0.0 | 1.0 | 0.00 | 0.03 | 0.00 | 70 | 1016.6 | |
| 20260904151916 | 87 | 0.0 | 0.0 | 0.00 | 0.03 | 0.00 | 73 | 1016.5 | |
| 20260904150916 | 87 | 0.0 | 1.0 | 0.00 | 0.03 | 0.00 | 74 | 1016.5 | |
| 20260904145917 | 88 | 68 | 1.0 | 1.0 | 0.00 | 0.03 | 0.00 | 69 | 1016.5 |
| 20260904144916 | 88 | 0.0 | 0.0 | 0.00 | 0.03 | 0.00 | 71 | 1016.4 | |
| 20260904143916 | 88 | 0.0 | 0.0 | 0.00 | 0.03 | 0.00 | 73 | 1016.4 | |
| 20260904142916 | 87 | 0.0 | 1.0 | 0.00 | 0.03 | 0.00 | 75 | 1016.3 | |
| 20260904141916 | 86 | 68 | 1.0 | 2.0 | 0.00 | 0.03 | 0.00 | 79 | 1016.4 |
| 20260904140957 | 85 | 0.0 | 1.0 | 0.00 | 0.03 | 0.00 | 82 | 1016.4 | |
| 20260904135916 | 85 | 0.0 | 0.0 | 0.00 | 0.03 | 0.00 | 83 | 1016.4 | |
| 20260904134916 | 85 | 0.0 | 0.0 | 0.00 | 0.03 | 0.00 | 83 | 1016.4 | |
| 20260904133917 | 84 | 0.0 | 0.0 | 0.00 | 0.03 | 0.00 | 87 | 1016.5 | |
| 20260904132916 | 82 | 0.0 | 1.0 | 0.00 | 0.03 | 0.00 | 93 | 1016.5 | |
| 20260904131916 | 80 | 0.0 | 0.0 | 0.00 | 0.03 | 0.00 | 95 | 1016.5 | |
| 20260904130916 | 80 | 0.0 | 0.0 | 0.00 | 0.03 | 0.00 | 96 | 1016.6 | |
| 20260904125916 | 79 | 0.0 | 0.0 | 0.00 | 0.03 | 0.00 | 97 | 1016.6 | |
| 20260904124916 | 78 | 0.0 | 0.0 | 0.00 | 0.03 | 0.00 | 97 | 1016.5 | |
| 20260904123916 | 77 | 0.0 | 0.0 | 0.00 | 0.03 | 0.00 | 97 | 1016.6 | |
| 20260904122916 | 76 | 0.0 | 0.0 | 0.00 | 0.03 | 0.00 | 97 | 1016.6 | |
| 20260904121916 | 76 | 0.0 | 0.0 | 0.00 | 0.03 | 0.00 | 97 | 1016.6 | |
| 20260904121004 | 75 | 0.0 | 0.0 | 0.00 | 0.03 | 0.00 | 97 | 1016.4 | |
| 20260904120316 | 75 | 0.0 | 0.0 | 0.00 | 0.03 | 0.00 | 97 | 1016.3 | |
| 20260904115356 | 74 | 0.0 | 0.0 | 0.00 | 0.03 | 0.00 | 96 | 1016.2 | |
| 20260904114317 | 74 | 0.0 | 0.0 | 0.00 | 0.03 | 0.00 | 96 | 1016.1 | |
| 20260904113316 | 73 | 0.0 | 0.0 | 0.00 | 0.03 | 0.00 | 96 | 1015.9 | |
| 20260904112317 | 73 | 0.0 | 0.0 | 0.00 | 0.03 | 0.00 | 96 | 1015.8 | |
| 20260904111316 | 73 | 0.0 | 0.0 | 0.00 | 0.03 | 0.00 | 96 | 1015.8 | |
| 20260904110316 | 74 | 0.0 | 0.0 | 0.00 | 0.03 | 0.00 | 96 | 1015.7 | |
| 20260904105336 | 74 | 0.0 | 0.0 | 0.00 | 0.03 | 0.00 | 96 | 1015.7 | |
| 20260904104316 | 74 | 0.0 | 0.0 | 0.00 | 0.03 | 0.00 | 96 | 1015.6 | |
| 20260904103316 | 74 | 0.0 | 0.0 | 0.00 | 0.03 | 0.00 | 96 | 1015.6 | |
| 20260904102316 | 74 | 0.0 | 0.0 | 0.00 | 0.03 | 0.00 | 96 | 1015.6 | |
| 20260904101316 | 74 | 0.0 | 0.0 | 0.00 | 0.03 | 0.00 | 96 | 1015.5 | |
| 20260904100316 | 74 | 0.0 | 0.0 | 0.00 | 0.03 | 0.00 | 96 | 1015.2 | |
| 20260904095316 | 74 | 0.0 | 0.0 | 0.00 | 0.03 | 0.00 | 96 | 1015.2 | |
| 20260904094316 | 74 | 0.0 | 0.0 | 0.00 | 0.03 | 0.00 | 96 | 1015.1 | |
| 20260904093316 | 74 | 0.0 | 0.0 | 0.00 | 0.03 | 0.00 | 96 | 1015.0 | |
| 20260904092316 | 74 | 0.0 | 0.0 | 0.00 | 0.03 | 0.00 | 96 | 1014.9 | |
| 20260904091316 | 74 | 0.0 | 0.0 | 0.00 | 0.03 | 0.00 | 96 | 1015.0 | |
| 20260904090316 | 74 | 0.0 | 0.0 | 0.00 | 0.03 | 0.00 | 96 | 1015.0 | |
| 20260904085316 | 75 | 0.0 | 0.0 | 0.00 | 0.03 | 0.00 | 96 | 1014.9 | |
| 20260904084316 | 75 | 0.0 | 0.0 | 0.00 | 0.03 | 0.00 | 96 | 1014.8 | |
| 20260904083315 | 75 | 0.0 | 0.0 | 0.00 | 0.03 | 0.00 | 96 | 1014.8 | |
| 20260904082317 | 75 | 0.0 | 0.0 | 0.00 | 0.03 | 0.00 | 96 | 1014.8 | |
| 20260904081316 | 75 | 0.0 | 0.0 | 0.00 | 0.03 | 0.00 | 96 | 1014.8 | |
| 20260904080315 | 75 | 0.0 | 0.0 | 0.00 | 0.03 | 0.00 | 96 | 1014.9 | |
| 20260904075316 | 75 | 0.0 | 0.0 | 0.00 | 0.03 | 0.00 | 96 | 1014.9 | |
| 20260904074336 | 75 | 0.0 | 0.0 | 0.00 | 0.03 | 0.00 | 96 | 1014.9 | |
| 20260904073316 | 75 | 0.0 | 0.0 | 0.00 | 0.03 | 0.00 | 96 | 1014.9 | |
| 20260904072315 | 75 | 0.0 | 0.0 | 0.00 | 0.03 | 0.00 | 96 | 1014.9 | |
| 20260904071316 | 75 | 0.0 | 0.0 | 0.00 | 0.03 | 0.00 | 96 | 1015.0 | |
| 20260904070318 | 75 | 0.0 | 0.0 | 0.00 | 0.03 | 0.00 | 96 | 1015.0 | |
| 20260904065317 | 75 | 0.0 | 0.0 | 0.00 | 0.03 | 0.00 | 96 | 1014.9 | |
| 20260904064317 | 76 | 0.0 | 0.0 | 0.00 | 0.03 | 0.00 | 96 | 1015.1 | |
| 20260904063317 | 76 | 0.0 | 0.0 | 0.00 | 0.03 | 0.00 | 96 | 1015.1 | |
| 20260904062318 | 76 | 0.0 | 0.0 | 0.00 | 0.03 | 0.00 | 96 | 1015.1 | |
| 20260904061318 | 76 | 0.0 | 0.0 | 0.00 | 0.03 | 0.00 | 96 | 1015.2 | |
| 20260904060318 | 76 | 0.0 | 0.0 | 0.00 | 0.03 | 0.00 | 96 | 1015.3 | |
| 20260904055317 | 76 | 0.0 | 0.0 | 0.00 | 0.03 | 0.00 | 96 | 1015.3 | |
| 20260904054319 | 76 | 0.0 | 0.0 | 0.00 | 0.03 | 0.00 | 95 | 1015.5 | |
| 20260904053337 | 76 | 0.0 | 0.0 | 0.00 | 0.03 | 0.00 | 95 | 1015.7 | |
| 20260904052317 | 76 | 0.0 | 0.0 | 0.00 | 0.03 | 0.00 | 95 | 1015.8 | |
| 20260904051419 | 76 | 0.0 | 0.0 | 0.00 | 0.03 | 0.00 | 95 | 1015.7 | |
| 20260904050318 | 76 | 0.0 | 0.0 | 0.00 | 0.03 | 0.00 | 95 | 1016.0 | |
| 20260904045317 | 76 | 0.0 | 0.0 | 0.00 | 0.03 | 0.00 | 95 | 1015.9 | |
| 20260904044318 | 76 | 0.0 | 0.0 | 0.00 | 0.03 | 0.00 | 95 | 1016.0 | |
| 20260904043318 | 76 | 0.0 | 0.0 | 0.00 | 0.03 | 0.00 | 95 | 1015.9 | |
| 20260904042318 | 76 | 0.0 | 0.0 | 0.00 | 0.03 | 0.00 | 95 | 1015.9 | |
| 20260904041338 | 76 | 0.0 | 0.0 | 0.00 | 0.03 | 0.00 | 95 | 1016.0 | |
| 20260904040337 | 76 | 0.0 | 0.0 | 0.00 | 0.03 | 0.00 | 95 | 1016.0 | |
| 20260904035316 | 77 | 0.0 | 0.0 | 0.00 | 0.03 | 0.03 | 95 | 1016.0 | |
| 20260904034317 | 77 | 0.0 | 0.0 | 0.00 | 0.03 | 0.03 | 95 | 1016.1 | |
| 20260904033316 | 77 | 0.0 | 0.0 | 0.00 | 0.03 | 0.03 | 95 | 1016.2 | |
| 20260904032317 | 77 | 0.0 | 0.0 | 0.00 | 0.03 | 0.03 | 95 | 1016.2 | |
| 20260904031317 | 77 | 0.0 | 0.0 | 0.00 | 0.03 | 0.03 | 95 | 1016.3 | |
| 20260904030318 | 77 | 0.0 | 0.0 | 0.00 | 0.03 | 0.03 | 94 | 1016.3 | |
| 20260904025316 | 77 | 0.0 | 0.0 | 0.00 | 0.03 | 0.03 | 94 | 1016.6 | |
| 20260904024317 | 77 | 0.0 | 0.0 | 0.00 | 0.03 | 0.03 | 94 | 1016.7 | |
| 20260904023316 | 77 | 0.0 | 0.0 | 0.00 | 0.03 | 0.03 | 94 | 1016.6 | |
| 20260904022318 | 77 | 0.0 | 0.0 | 0.00 | 0.03 | 0.03 | 94 | 1016.5 | |
| 20260904021317 | 77 | 0.0 | 0.0 | 0.00 | 0.03 | 0.03 | 94 | 1016.4 | |
| 20260904020316 | 77 | 0.0 | 0.0 | 0.00 | 0.03 | 0.03 | 94 | 1016.3 | |
| 20260904015359 | 78 | 0.0 | 0.0 | 0.00 | 0.03 | 0.03 | 94 | 1016.2 | |
| 20260904014436 | 78 | 0.0 | 0.0 | 0.00 | 0.03 | 0.03 | 93 | 1016.1 | |
| 20260904013416 | 78 | 0.0 | 0.0 | 0.00 | 0.03 | 0.03 | 93 | 1016.0 | |
| 20260904012416 | 78 | 0.0 | 0.0 | 0.00 | 0.03 | 0.03 | 93 | 1016.0 | |
| 20260904011417 | 78 | 0.0 | 0.0 | 0.00 | 0.03 | 0.03 | 93 | 1015.9 | |
| 20260904010416 | 79 | 0.0 | 0.0 | 0.00 | 0.03 | 0.03 | 93 | 1015.7 | |
| 20260904005416 | 79 | 0.0 | 0.0 | 0.00 | 0.03 | 0.03 | 92 | 1015.7 | |
| 20260904004436 | 79 | 0.0 | 0.0 | 0.00 | 0.03 | 0.03 | 92 | 1015.7 | |
| 20260904003418 | 79 | 0.0 | 0.0 | 0.00 | 0.03 | 0.03 | 91 | 1015.6 | |
| 20260904002416 | 80 | 0.0 | 0.0 | 0.00 | 0.03 | 0.03 | 91 | 1015.5 | |
| 20260904001416 | 80 | 0.0 | 0.0 | 0.00 | 0.03 | 0.03 | 90 | 1015.4 | |
| 20260904000417 | 81 | 0.0 | 0.0 | 0.00 | 0.03 | 0.03 | 89 | 1015.3 | |
| 20260903235416 | 81 | 0.0 | 0.0 | 0.00 | 0.03 | 0.03 | 88 | 1015.4 | |
| 20260903234416 | 82 | 0.0 | 0.0 | 0.00 | 0.03 | 0.03 | 87 | 1015.4 | |
| 20260903233416 | 82 | 0.0 | 0.0 | 0.00 | 0.03 | 0.03 | 86 | 1015.3 | |
| 20260903232416 | 83 | 0.0 | 1.0 | 0.00 | 0.03 | 0.03 | 84 | 1015.4 | |
| 20260903231416 | 84 | 0.0 | 1.0 | 0.00 | 0.03 | 0.03 | 83 | 1015.3 | |
| 20260903230436 | 84 | 0.0 | 0.0 | 0.00 | 0.03 | 0.03 | 81 | 1015.3 | |
| 20260903225416 | 84 | 0.0 | 1.0 | 0.00 | 0.03 | 0.03 | 80 | 1015.3 | |
| 20260903224416 | 85 | 0.0 | 1.0 | 0.00 | 0.03 | 0.03 | 79 | 1015.3 | |
| 20260903223517 | 85 | 45 | 2.0 | 5.0 | 0.00 | 0.03 | 0.03 | 77 | 1015.2 |
| 20260903222456 | 85 | 0.0 | 1.0 | 0.03 | 0.03 | 0.03 | 81 | 1015.2 |